Location: Unspecified
(35.6961°N, 0.0000°E)
Time: 17:22:07
(UTC+00:00)

Altair - Pass Details

Date: 21 May 2019
Orbit: 1501 x 1683 km, 47.2° (Epoch: 16 June)

Event Time Altitude Azimuth Distance (km) Brightness Sun altitude
Rises 06:09:22 0° 267° (W) 4,926 9.5 14.1°
Reaches altitude 10° 06:12:44 10° 273° (W) 3,944 9.1 14.7°
Maximum altitude 06:22:28 48° 346° (NNW) 2,099 8.5 16.7°
Drops below altitude 10° 06:32:05 10° 59° (ENE) 3,894 11.3 18.6°
Sets 06:35:24 0° 65° (ENE) 4,860 11.6 19.2°
